Вернуться в каталог

FORMOSAT7-4/COSMIC2-4

АктивенПогодаVLEO
NORAD 44350·PAYLOAD·🇹🇼 Taiwan

Запущен Jun 25, 2019 с Cape Canaveral Space Force Station

Loading…

Ближайшие Пролёты (ближайшие 24 часа)

TLE

СвежийSource: Space-Track

Эпоха: Sep 14, 2026, 04:59 UTC

1 44350U 19036M   26257.20772455  .00002080  00000-0  15140-3 0  9993
2 44350  23.9970 214.2007 0001352 142.9082 217.1513 14.96816063397420

Отслеживайте FORMOSAT7-4/COSMIC2-4 в реальном времени с AllMySat

Download on the App Store